Regional Weather Roundup
Issued by NWS Wakefield, VA

Home | Current Version | Previous Version | Graphics & Text | Print | Product List | Glossary On
Versions: 1 2 3 4 5 6 7 8 9 10 11 12 13 14 15 16 17 18 19 20 21 22 23 24 25 26 27 28 29 30 31 32 33 34 35 36 37 38 39 40 41 42 43 44 45 46 47 48 49 50
000
ASUS41 KAKQ 211010
RWRAKQ

REGIONAL WEATHER ROUNDUP
NATIONAL WEATHER SERVICE WAKEFIELD VA
600 AM EDT THU AUG 21 2014

Note: "fair" indicates few or no clouds below 12,000 feet with no
significant weather and/or obstructions to visibility. * = Denotes
station may not report precipitation (e.g., rain,snow,etc.),
thunder or fog.

VAZ042-051-052>054-056-211100-
NORTHERN VIRGINIA

CITY           SKY/WX    TMP DP  RH WIND       PRES   REMARKS
WASH NATIONAL  PTCLDY    72  66  83 CALM      30.02R
DULLES         PTCLDY    62  62 100 CALM      30.02R FOG
FORT BELVOIR   CLEAR     64  63  94 CALM      30.02R FOG
QUANTICO       PTCLDY    67  65  93 NW6       30.02S
FREDERICKSBRG* CLEAR     66  66 100 CALM      30.01R
STAFFORD*      CLEAR     64  64 100 CALM      30.05R FOG
WARRENTON      FOG       69  69 100 CALM      30.02R VSB 1/2
CULPEPER*      CLOUDY   N/A N/A N/A W3        30.03R FOG
MANASSAS*      CLOUDY    66  66 100 CALM      30.02R VSB 1/4
LEESBURG*      PTCLDY    63  63 100 CALM      30.03R FOG
WINCHESTER     FOG       68  66  94 CALM      30.03R VSB 1/2
$$

VAZ048-049-060>072-079>083-211100-
CENTRAL AND SOUTH CENTRAL VIRGINIA...AND NORTH CENTRAL NORTH CAROLINA

CITY           SKY/WX    TMP DP  RH WIND       PRES   REMARKS
RICHMOND       PTCLDY    71  68  90 CALM      30.01R
CHESTERFIELD*  MOSUNNY  N/A N/A N/A NW5       30.02S
HANOVER        FOG       66  66 100 CALM      30.03R VSB 1/2
TAPPAHANNOCK*  CLEAR     69  66  92 CALM      30.01R FOG
CHARLOTTSVILLE FOG       65  64  97 CALM      30.03R VSB 1/2
ORANGE*        FOG       66  64  94 CALM      30.04R VSB 1/4
LOUISA*        FOG       64  64 100 CALM      30.01S VSB<1/4
FARMVILLE*     FOG       66  66 100 CALM      30.02R VSB 1/4
SOUTH HILL*    PTCLDY    70  70 100 CALM      30.07R FOG
ROANOKE RAPIDS CLOUDY    70  70 100 CALM      30.01R FOG
RALEIGH        MOCLDY    72  70  93 CALM      30.02R FOG
$$

VAZ088>098-211100-
SOUTHEAST VIRGINIA

CITY           SKY/WX    TMP DP  RH WIND       PRES   REMARKS
NORFOLK        PTCLDY    75  72  90 S7        30.00R
VIRGINIA BEACH MOCLDY    75  72  90 SE3       30.00R
NORFOLK NAVAL  PTCLDY    76  72  87 S3        30.01R
WEST POINT*    CLOUDY    75  71  87 CALM      30.02S
NEWPORT NEWS   CLOUDY    76  71  85 CALM      30.00R
LANGLEY AFB    MOCLDY    73  73 100 S1        29.99R
FORT EUSTIS    CLOUDY    75 N/A N/A CALM      29.98S
WILLIAMSBURG*  CLOUDY    75  73  94 CALM      30.01S
FRANKLIN*      CLOUDY    73  73 100 CALM      30.00R
WAKEFIELD      FOG       74  72  93 CALM      30.00R VSB 1/2
$$

VAZ020-022-025-037-045-211100-
WESTERN AND SOUTHWEST VIRGINIA

CITY           SKY/WX    TMP DP  RH WIND       PRES   REMARKS
STAUNTON*      FOG       64  63  95 CALM      30.08R VSB 1/4
HOT SPRINGS VA MOCLDY   N/A N/A N/A W13       30.21R
LYNCHBURG      FOG       68  68 100 CALM      30.07R VSB 1/2
DANVILLE       PTCLDY    69  67  93 CALM      30.05R FOG
MARTINSVILLE   PTCLDY    66  66 100 CALM      30.10R FOG
ROANOKE        PTCLDY    70  64  81 W7        30.08R
BLACKSBURG     PTCLDY    66  66 100 CALM      30.16R
DUBLIN*        PTCLDY    67  63  88 W3        30.16S
MARION*        CLOUDY    67  64  90 W8        30.21R
HILLSVILLE*    PTCLDY    64  62  91 W3        30.18R
RICHLANDS*     FOG       65  64  94 SW3       30.19R VSB 1/2
WISE*          FOG       61  61 100 CALM      30.20R VSB 1
ABINGDON*      MOCLDY    67  66  97 CALM      30.18R FOG
$$

MDZ021>025-VAZ099-100-211100-
SOUTHERN MARYLAND AND THE DELMARVA PENINSULA

CITY           SKY/WX    TMP DP  RH WIND       PRES   REMARKS
PATUXENT RIVER CLOUDY    74  71  91 CALM      30.00R
BAY BRIDGE APT   N/A     70  70 100 E3        30.01R
LEONARDTOWN    CLOUDY    70  68  94 CALM      30.02R
DOVER          CLEAR     66  66 100 CALM      30.01R
GEORGETOWN     PTCLDY    67  64  90 E8        30.02S
EASTON         CLEAR     69  69 100 CALM      30.05R
CAMBRIDGE      MOCLDY    72  68  88 CALM      30.00S
SALISBURY      PTCLDY    70  65  84 CALM      30.01S
OCEAN CITY     MOCLDY    70  68  93 CALM      30.01S FOG
WALLOPS ISLAND CLOUDY    73  71  93 S3        30.01S
ACCOMACK*      CLOUDY    70  68  94 CALM      30.01R
$$

NCZ012>017-030>032-211100-
EASTERN NORTH CAROLINA

CITY           SKY/WX    TMP DP  RH WIND       PRES   REMARKS
ELIZABETH CITY CLEAR     73  73 100 CALM      30.01R FOG
AHOSKIE*       CLOUDY    72  71  97 CALM      30.01R
EDENTON*       CLEAR     75  74  96 CALM      30.01R FOG
CURRITUCK*     MOCLDY    74  70  88 CALM      30.02R
KILL DEVIL HLS CLOUDY    76  74  93 CALM      30.01R
MANTEO         MOCLDY    73  72  94 CALM      30.02R
CAPE HATTERAS  PTCLDY    77  75  93 CALM      30.01R
GOLDSBORO      PTCLDY    74  73  99 CALM      29.99R
WASHINGTON     PTCLDY    73  73  97 CALM      30.01R
GREENVILLE     PTCLDY    73  73 100 CALM      30.02R FOG
NEW BERN       FOG       75  73  94 CALM      30.02R VSB 1/2
WILMINGTON     FOG       79  78  97 CALM      30.00R VSB 1/4
$$

VAZ048-211100-
ELSEWHERE

CITY           SKY/WX    TMP DP  RH WIND       PRES   REMARKS
HARRISBURG PA  MOCLDY    68  65  90 E3        30.01R
BALTIMORE      MOCLDY    64  63  94 CALM      30.01R
ANNAPOLIS      CLEAR     73  70  90 CALM      30.00R
ANDREWS AFB    CLEAR     67  67  99 CALM      30.02R
WILMINGTON DE  PTCLDY    68  65  90 CALM      30.03R
PHILADELPHIA   PTCLDY    69  64  84 SE5       30.03R
WILDWOOD NJ*   CLEAR     64  61  88 CALM      30.04R
ATLANTIC CITY  CLEAR     64  62  93 CALM      30.03R
HENDERSON NC   PTCLDY    68  67  96 CALM      30.03R
GREENSBORO     PTCLDY    74  67  78 N5        30.06R
ROCKY MOUNT    PTCLDY    72  71  97 E3        30.02R FOG
FAYETTEVILLE   CLEAR     76  73  91 W5        30.00R
CHARLOTTE      MOCLDY    69  66  90 N3        30.06R
$$

VAZ100-211100-
MARINE

STATION/POSITION TIME  TEMP    WIND        PRES    WAVE   SWELL
                       AIR SEA DIR/SP/G            HT/PER HT/PER
                 (UTC) (F)     (DEG/KT/KT) (MB)    (FT/S) (FT/S)
44066 TX TWR #4  1000   70 72  350/  8/ 10 1016.4R   3/ 6   2/ 6
CAPE MAY NJ      1000   68 80  100/  2/  2 1016.2R
LEWES DE         1000   69 75  150/  2/  3 1016.3R
15NM E FENWICK I 1000   74 75              1016.4R   2/ 7
OCEAN-CITY-INLET 1000   73 76  140/  2/  3 1015.8F
WACHAPREAGUE VA  1000   76 80  190/  4/  6 1016.0R
THOMAS POINT MD  1000   75 78  180/  7/  8 1016.6R
GOOSES REEF MD   1000   75     150/  6/  8 1016.2S
COVE POINT MD    1000   75     210/  4/  5 1015.7R
SOLOMONS ISLAND  1000      80                N/A
BISHOPS HEAD MD  1000   76 78  130/  8/ 10 1015.4R
PINEY POINT MD   1000          190/  6/  7   N/A
POTOMAC MD       1000   77     210/  6/  8 1015.0R
CAMBRIDGE MD     1000   71 78  130/  3/  3 1015.7R
LEWISETTA VA     1000   74 79  190/  3/  4 1015.4S
RAPPAHANNOCK LGT 1000          140/  5/  6 1016.5R
STINGRAY PT      1000   77     260/  4/  6 1016.6R
YORK RVR RNG VA  1000   76     200/  6/  7 1015.3S
YORKTOWN VA      1000   74 80  230/  2/  2 1015.5S
JAMESTOWN VA     1000   74     310/  4/  6   N/A
DOMINION TERM VA 1000   76     190/  4/  5 1015.9R
KIPTOPEKE VA     1000      81  180/  9/ 11   N/A
CHES BAY BRIDGE  1000   76 78  150/  8/ 10 1015.4R
CAPE HENRY VA    1000   75     160/  6/  8 1014.7R
CHESAPEAKE LGHT  0900   76     160/ 11/ 12 1016.2R
WILLOUBY STN VA  1000   75                 1014.7R
S CRANEY ISL VA  1000          150/  7/  9 1015.5S
CAPE HENRY BUOY  1000      78                N/A     2/ 6
1ST LANDING BUOY 1000   77     170/  6/  8 1015.5S
CAPE CHARLES BUO 1000      77                N/A     2/ 6   2/ 6
OFFSHORE WE BUOY 1000      77                N/A     2/ 6   2/ 6
64NM E OF VA BCH 1000   76 78  150/  4/  4 1015.8R   2/ 6   2/ 6
DUCK PIER NC     1000   77 78  160/  7/  8 1015.4R
44056 DUCK FRF   1000                        N/A     2/ 7
OREGON INLET NC  1000   76 81  130/  4/  5 1016.2R
HATTERAS NC      1000   79 81  210/  3/  4 1016.7R
DIAMOND SHLS NC  1000   79     180/  4/  6 1016.2R   3/ 7   2/ 7
CAPE LOOKOUT NC  0900   80     210/  4/  5 1015.4F
$$



USA.gov is the U.S. government's official web portal to all federal, state and local government web resources and services.